Date,TemperatureHighF,TemperatureAvgF,TemperatureLowF,DewpointHighF,DewpointAvgF,DewpointLowF,HumidityHigh,HumidityAvg,HumidityLow,PressureMaxIn,PressureMinIn,WindSpeedMaxMPH,WindSpeedAvgMPH,GustSpeedMaxMPH,PrecipitationSumIn
2013-2-1,7.3,1.7,-5.6,-3.1,-12.4,-17.4,66,51,36,30.12,29.86,0,0,0,0.00
2013-2-2,17.1,8.7,2.7,-0.7,-3.2,-7.1,68,58,43,29.92,29.78,0,0,0,0.00
2013-2-3,24.8,15.0,6.6,8.9,3.3,-2.9,74,60,43,29.93,29.81,0,0,0,0.00
2013-2-4,21.6,14.5,8.1,8.9,3.5,-5.9,74,62,41,29.93,29.82,0,0,0,0.00
2013-2-5,31.5,19.9,5.0,22.1,10.8,-4.7,77,67,54,30.01,29.74,9,2,11,0.00
2013-2-6,34.3,22.7,4.6,27.5,13.3,-2.6,79,67,49,30.05,29.90,10,3,11,0.00
2013-2-7,34.7,31.6,22.1,30.8,27.4,18.0,88,84,79,29.96,29.79,7,2,9,0.06
2013-2-8,31.5,21.4,9.0,18.3,13.0,2.2,84,70,51,30.25,29.91,0,0,0,0.02
2013-2-9,30.6,23.5,7.9,23.1,17.2,1.1,83,77,70,29.93,29.65,0,0,0,0.00
2013-2-10,41.9,34.0,21.4,40.3,30.8,17.3,94,88,81,29.94,29.23,30,6,30,0.66
2013-2-11,37.8,30.6,25.0,32.7,22.4,15.3,83,71,62,30.48,29.92,25,7,27,0.00
2013-2-12,34.7,25.0,19.9,18.9,14.8,10.9,83,65,52,30.03,29.85,12,4,13,0.00
2013-2-13,43.2,30.0,16.0,27.4,21.4,10.4,85,71,51,29.92,29.73,11,2,11,0.00
2013-2-14,38.1,34.2,27.3,31.1,24.4,16.1,82,68,51,30.07,29.79,17,7,20,0.01
2013-2-15,30.9,21.4,12.0,15.0,4.1,-2.4,63,47,31,30.16,29.91,10,5,14,0.00
2013-2-16,23.4,12.8,5.4,0.8,-4.7,-9.8,58,46,27,29.92,29.85,11,3,12,0.00
2013-2-17,29.3,17.1,0.5,14.8,2.4,-9.3,66,53,32,29.92,29.71,13,4,14,0.00
2013-2-18,50.5,35.0,22.5,36.3,25.7,14.8,88,69,53,30.00,29.45,13,5,20,0.09
2013-2-19,22.5,13.7,7.9,15.8,1.4,-9.2,76,58,43,30.56,29.93,0,0,0,0.00
2013-2-20,28.0,15.3,5.4,7.4,-0.7,-9.0,57,48,37,30.13,29.92,8,2,10,0.00
2013-2-21,25.9,19.1,10.6,20.6,9.9,0.0,83,67,53,29.99,29.65,18,7,21,0.01
2013-2-22,34.7,27.8,23.9,24.0,21.1,18.0,83,76,64,29.93,29.65,17,5,20,0.00
2013-2-23,36.3,27.1,23.2,19.5,16.1,13.7,73,63,48,30.02,29.92,12,6,16,0.07
2013-2-24,24.3,24.1,20.5,14.9,13.9,13.6,76,65,64,29.93,29.91,5,5,5,0.07
2013-2-25,45.7,30.7,16.0,26.1,19.1,9.5,81,63,44,29.95,29.83,7,2,8,0.00
2013-2-26,34.5,31.3,28.4,27.5,24.1,21.5,90,75,63,29.92,29.56,25,12,28,0.01
2013-2-27,34.0,30.8,27.9,30.2,27.6,24.0,89,88,84,30.03,29.89,14,5,17,0.11
2013-2-28,35.8,31.3,24.6,28.8,24.2,14.4,89,75,61,30.25,29.92,12,4,19,0.06